{"data":{"norad_id":58832,"epoch":"2026-09-20T12:37:37.985376Z","epoch_age_seconds":150227,"freshness":"FRESH","line1":"1 58832U 24017G   26263.52613409  .00001377  00000+0  51897-4 0  9990","line2":"2 58832  53.1628   5.3361 0001593  76.0973 284.0207 15.34395047150191","mean_motion":15.34395047,"eccentricity":0.0001593,"inclination_deg":53.1628,"raan_deg":5.3361,"arg_perigee_deg":76.0973,"mean_anomaly_deg":284.0207,"bstar":5.1897e-5,"rev_number":15019,"period_min":93.848061020233,"perigee_km":461.62821341112,"apogee_km":463.80770980189,"semimajor_km":6840.8549616065,"source":"CELESTRAK","updated_at":"2026-09-21T09:00:33.983923Z"}}